TimeCST,TemperatureF,Dew PointF,Humidity,Sea Level PressureIn,VisibilityMPH,Wind Direction,Wind SpeedMPH,Gust SpeedMPH,PrecipitationIn,Events,Conditions,WindDirDegrees,DateUTC
12:15 AM,40.6,38.3,91,30.25,0.5,Calm,Calm,-,N/A,Fog,Fog,0,2013-12-01 06:15:00
12:35 AM,40.3,38.3,93,30.24,1.8,Calm,Calm,-,N/A,,Mist,0,2013-12-01 06:35:00
12:55 AM,43.3,41.4,93,30.25,7.0,NW,4.6,-,N/A,,Clear,320,2013-12-01 06:55:00
1:15 AM,44.6,42.8,93,30.25,5.0,NW,3.5,-,N/A,,Clear,320,2013-12-01 07:15:00
1:35 AM,41.7,39.4,91,30.25,4.0,Calm,Calm,-,N/A,,Clear,0,2013-12-01 07:35:00
1:55 AM,41.7,39.7,93,30.24,2.0,NNW,3.5,-,N/A,,Clear,340,2013-12-01 07:55:00
2:15 AM,42.4,40.5,93,30.24,3.0,Calm,Calm,-,N/A,,Clear,0,2013-12-01 08:15:00
2:35 AM,42.1,40.1,93,30.24,2.0,NNW,3.5,-,N/A,,Scattered Clouds,330,2013-12-01 08:35:00
2:55 AM,41.2,39.0,92,30.23,1.5,Calm,Calm,-,N/A,,Scattered Clouds,0,2013-12-01 08:55:00
3:15 AM,41.9,39.9,93,30.23,1.0,NW,3.5,-,N/A,,Mostly Cloudy,320,2013-12-01 09:15:00
3:35 AM,45.3,43.5,93,30.23,2.5,NW,4.6,-,N/A,,Mostly Cloudy,320,2013-12-01 09:35:00
3:55 AM,47.3,45.5,93,30.24,7.0,NNW,4.6,-,N/A,,Overcast,340,2013-12-01 09:55:00
4:15 AM,46.9,45.1,93,30.23,7.0,North,4.6,-,N/A,,Mostly Cloudy,360,2013-12-01 10:15:00
4:35 AM,46.4,44.6,93,30.24,7.0,NW,3.5,-,N/A,,Scattered Clouds,320,2013-12-01 10:35:00
4:55 AM,46.6,44.6,93,30.24,5.0,North,3.5,-,N/A,,Mostly Cloudy,360,2013-12-01 10:55:00
5:50 AM,48.2,46.4,93,30.25,7.0,Calm,Calm,-,N/A,,Mostly Cloudy,0,2013-12-01 11:50:00
6:50 AM,46.4,44.6,93,30.28,7.0,Calm,Calm,-,N/A,,Scattered Clouds,0,2013-12-01 12:50:00
7:50 AM,50.0,48.2,94,30.28,7.0,NE,5.8,-,N/A,,Scattered Clouds,50,2013-12-01 13:50:00
8:50 AM,59.0,50.0,72,30.26,7.0,NNE,5.8,-,N/A,,Clear,30,2013-12-01 14:50:00
9:50 AM,62.6,48.2,59,30.25,7.0,North,6.9,-,N/A,,Clear,10,2013-12-01 15:50:00
10:55 AM,66.2,48.2,52,30.21,7.0,ENE,6.9,-,N/A,,Scattered Clouds,60,2013-12-01 16:55:00
11:50 AM,66.2,48.2,52,30.18,7.0,East,3.5,-,N/A,,Scattered Clouds,100,2013-12-01 17:50:00
12:50 PM,71.6,50.0,46,30.14,7.0,South,5.8,-,N/A,,Scattered Clouds,190,2013-12-01 18:50:00
1:55 PM,71.6,50.0,46,30.10,7.0,SSE,6.9,-,N/A,,Scattered Clouds,150,2013-12-01 19:55:00
2:55 PM,69.8,50.0,49,30.10,7.0,North,-9999.0,-,N/A,,Scattered Clouds,0,2013-12-01 20:55:00
3:50 PM,69.8,50.0,49,30.08,7.0,South,5.8,-,N/A,,Scattered Clouds,180,2013-12-01 21:50:00
4:50 PM,62.6,51.8,68,30.09,7.0,South,4.6,-,N/A,,Scattered Clouds,190,2013-12-01 22:50:00
5:50 PM,57.2,51.8,82,30.09,7.0,South,4.6,-,N/A,,Clear,190,2013-12-01 23:50:00
6:15 PM,56.3,51.3,83,30.07,7.0,South,3.5,-,N/A,,Clear,180,2013-12-02 00:15:00
6:35 PM,56.3,51.6,84,30.07,7.0,Calm,Calm,-,N/A,,Clear,0,2013-12-02 00:35:00
6:50 PM,57.2,51.8,82,30.08,7.0,South,4.6,-,N/A,,Clear,190,2013-12-02 00:50:00
6:55 PM,56.3,51.6,84,30.07,10.0,Calm,Calm,-,N/A,,Clear,0,2013-12-02 00:55:00
7:15 PM,56.1,50.9,83,30.08,10.0,Calm,Calm,-,N/A,,Clear,0,2013-12-02 01:15:00
7:35 PM,53.4,50.2,89,30.07,10.0,Calm,Calm,-,N/A,,Clear,0,2013-12-02 01:35:00
7:55 PM,54.0,50.0,86,30.08,10.0,Calm,Calm,-,N/A,,Clear,0,2013-12-02 01:55:00
8:15 PM,52.7,50.2,91,30.07,10.0,SW,3.5,-,N/A,,Clear,230,2013-12-02 02:15:00
8:35 PM,53.6,50.9,91,30.07,10.0,Calm,Calm,-,N/A,,Clear,0,2013-12-02 02:35:00
8:55 PM,54.0,51.3,91,30.07,7.0,Calm,Calm,-,N/A,,Clear,0,2013-12-02 02:55:00
9:15 PM,52.5,50.2,92,30.07,7.0,Calm,Calm,-,N/A,,Clear,0,2013-12-02 03:15:00
9:35 PM,53.1,50.2,90,30.06,7.0,Calm,Calm,-,N/A,,Clear,0,2013-12-02 03:35:00
9:55 PM,52.9,50.5,92,30.05,5.0,Calm,Calm,-,N/A,,Clear,0,2013-12-02 03:55:00
10:15 PM,52.0,49.1,90,30.06,5.0,Calm,Calm,-,N/A,,Clear,0,2013-12-02 04:15:00
10:35 PM,52.0,49.5,91,30.06,4.0,Calm,Calm,-,N/A,,Clear,0,2013-12-02 04:35:00
10:55 PM,52.3,50.0,92,30.06,4.0,Calm,Calm,-,N/A,,Clear,0,2013-12-02 04:55:00
11:15 PM,51.3,48.7,91,30.04,4.0,Calm,Calm,-,N/A,,Clear,0,2013-12-02 05:15:00
11:35 PM,51.4,49.1,92,30.03,5.0,Calm,Calm,-,N/A,,Clear,0,2013-12-02 05:35:00
11:55 PM,51.3,49.1,92,30.02,5.0,Calm,Calm,-,N/A,,Clear,0,2013-12-02 05:55:00